Voltar ao catálogo

TURKSAT 4A

AtivoComunicaçõesGEO
NORAD 39522·PAYLOAD·🇹🇷 Turkey

Lançado Feb 14, 2014 de Baikonur Cosmodrome

Loading…

TLE

AtualizadoSource: Space-Track

Época: Sep 14, 2026, 14:00 UTC

1 39522U 14007A   26257.58342105  .00000138  00000-0  00000-0 0  9995
2 39522   0.0750 287.1872 0003391 317.5165   0.8807  1.00270547 45866

Acompanhe TURKSAT 4A em tempo real com AllMySat

Download on the App Store